Showing default

GLOBALSTAR M068, 32266

Orbit data source: Space-Track

GLOBALSTAR M068, 32266 is a payload satellite owned by Globalstar (US) in LEO that was launched on Sat, 20 Oct 2007 UTC via a SOYUZ-FG launch vehicle from the Tyuratam Missile And Space Complex (TTMTR). Payload-class satellites include a variety of spacecraft equipped with specific instruments for various scientific and technological missions. These include communications satellites like Starlink; space stations such as the ISS; scientific satellites like the Hubble; Earth observation satellites from companies like Planet Labs, Umbra, and HawkEye 360; GPS; miniature CubeSats for education and research; and military/defense satellites.

Loading next visibility...
Identifier
32266, 2007-048D
Orbit
LEO
Last TLE update
12 hours ago
Origin
Manufacturer
SS/Loral
Mission
Non-operational Commercial Communications
Bus & Motor
LS-400, LS-400 AOCS
Mass
450 kg wet, 380 kg dry
Launch date (UTC)
2007-10-20 (18 years ago)
Launch vehicle
SOYUZ-FG
Launch site
Tyuratam Missile And Space Complex (TTMTR)
Object type
Payload
Rocket body
Debris
Shape & HBR
Box + 2 Pan, 12 m
Radar Cross Section
5.587 m², Large (>1 m²)

Expand to show TLE details & history

TLE from 12 hours ago
0 GLOBALSTAR M068
1 32266U 07048D   25181.94699708 -.00000060  00000-0  24225-3 0  9992
2 32266  51.9883 260.3140 0001441 157.4775  13.3060 12.62825452819296
Epoch: 2025-06-30T22:43Z
TLE epoch observation values (Epoch: 2025-06-30T22:43:40.547Z)
Latitude
7.21801°
Longitude
174.49267°
Altitude
1,410.249 km
Speed
7.157 km/s
True Right ascension
04h 58m 38s
True Declination
7° 10' 44"
Sunlit
Object was in daylight at epoch
Visualization orbit readout
Latitude
-17.22217°
Longitude
-167.37251°
Altitude
1,414.989 km
Speed
7.154 km/s
Apparent Right ascension
07h 38m 21s
Apparent Declination
-30° 09' 22"
Sunlit
Object is in daylight
Visualization observer readout
Local Sidereal Time
21:55:47
Azimuth
81.522° E
Elevation
-60.439°
Doppler factor
1
Orbital elements
Apogee altitude
1,412.821 km
Perigee altitude
1,410.576 km
Semi-major axis
7,789.835 km
Eccentricity
0.00014
Inclination
51.9883°
RAAN
260.314°
Arg. of periapsis
157.4775°
True anomaly
Unknown
Mean anomaly
13.306°
Eccentric anomaly
Unknown
Mean motion
3.15683 °/min
Orbital period
114.04 mins
BSTAR
0.00024225
Loading maneuver chart data...
Loading SW <> Apogee altitude chart data...
Loading historical data...
Loading historical data...
Loading historical data...
Loading historical data...
Loading historical data...
Loading historical data...
Loading historical data...
Other satellites on launch #48 in the year 2007 (2007-10-20 UTC)

GLOBALSTAR M068 Visibility forecast

Observer location: undefined°, undefined°

Span
Click to sort rows by Start time (UTC) header in descending order
Start Az.
Max El. time (UTC)
Max El. Az.
Max El.
End time (UTC)
End Az.
15 mins2025-07-01 11:28:21.831Z295.44° NW2025-07-01 11:36:21.831Z6.344° NNE30.97°2025-07-01 11:43:21.831Z64.112° ENE
15 mins2025-07-01 13:30:21.831Z312.419° NW2025-07-01 13:37:21.831Z26.751° NE38.977°2025-07-01 13:45:21.831Z101.078° ESE
15 mins2025-07-01 15:30:21.831Z300.249° NW2025-07-01 15:37:21.831Z221.757° SW40.9°2025-07-01 15:45:21.831Z149.844° SSE
5 mins2025-07-01 17:33:21.831Z258.062° W2025-07-01 17:35:21.831Z243.486° WSW12.974°2025-07-01 17:38:21.831Z221.979° SW
12 mins2025-07-02 06:14:21.831Z175.732° S2025-07-02 06:20:21.831Z120.904° SE27.378°2025-07-02 06:26:21.831Z71.176° E
15 mins2025-07-02 08:12:21.831Z236.748° WSW2025-07-02 08:19:21.831Z353.059° N44.575°2025-07-02 08:27:21.831Z51.71° ENE
4 mins2025-07-02 10:13:21.831Z284.258° WNW2025-07-02 10:17:21.831Z312.397° NW29.493°2025-07-02 10:17:21.831Z312.397° NW
|